John H. — WAC6768 — position and weather

sailwx.info

Track history (hours):
 
Tides and Currents Weather Stations Pressure Air Temp Water Temp Dewpoint Dewpoint Depression Visibility Wind Speed Wind Dir Waves Ship Positions

John H.

Owner: CROSS SOUND FERRY SERVICE INC, NEW LOUDON, CT. More information available from US FCC via Universal Licensing System and Coast Guard Vessel Documentation Center.

Last reported at 2014-Oct-26 00:30 UTC. Time now 2014-Oct-26 07:05 UTC.
Position N 41°21' W 072°06'.

Length 70 m.

Type: Passenger vessel. MMSI: 366934890.

Date/timePositionNaut miles runAvg speedWind from/ knotsBaromVisibWave heightAir tempDewpointWater temp
2014-Oct-26 00:30N 41°21' W 072°06'9 9.1
2014-Oct-25 23:33N 41°13' W 072°10'5 5.3
2014-Oct-25 22:33N 41°09' W 072°14'9 8.8
2014-Oct-25 21:33N 41°16' W 072°07'5 5.3
2014-Oct-25 20:33N 41°21' W 072°06'9 8.5
2014-Oct-25 19:33N 41°13' W 072°10'5 5.5
2014-Oct-25 18:34N 41°09' W 072°14'10 9.7
2014-Oct-25 17:33N 41°17' W 072°06'5 4.7
2014-Oct-25 16:33N 41°21' W 072°06'9 9.2
2014-Oct-25 15:33N 41°13' W 072°10'5 4.7
2014-Oct-25 14:33N 41°09' W 072°14'9 9.1
2014-Oct-25 13:33N 41°16' W 072°07'5 5.0
2014-Oct-25 12:33N 41°21' W 072°06'9 8.7
2014-Oct-25 11:33N 41°13' W 072°10'5 5.3
2014-Oct-25 10:34N 41°09' W 072°14'0 0.0
2014-Oct-25 02:13N 41°09' W 072°14'5 7.4
2014-Oct-25 01:33N 41°13' W 072°11'9 9.0
2014-Oct-25 00:33N 41°21' W 072°06'9 9.0
2014-Oct-24 23:33N 41°13' W 072°10'5 5.0
2014-Oct-24 22:33N 41°09' W 072°14'8 8.2
2014-Oct-24 21:33N 41°16' W 072°08'6 5.9
2014-Oct-24 20:33N 41°21' W 072°06'9 9.4
2014-Oct-24 19:33N 41°13' W 072°10'5 4.5
2014-Oct-24 18:32N 41°09' W 072°14'8 8.7
2014-Oct-24 17:33N 41°16' W 072°07'6 5.7
2014-Oct-24 16:33N 41°21' W 072°06'9 9.4
2014-Oct-24 15:33N 41°13' W 072°11'5 4.5
2014-Oct-24 14:33N 41°09' W 072°14'9 9.2
2014-Oct-24 13:33N 41°16' W 072°07'5 5.0
2014-Oct-24 12:33N 41°21' W 072°06'9 9.0
2014-Oct-24 11:33N 41°13' W 072°10'5 5.0
2014-Oct-24 10:33N 41°09' W 072°14'0 0.0
2014-Oct-24 01:33N 41°09' W 072°14'0 0.1
2014-Oct-24 00:33N 41°09' W 072°14'9 9.0
2014-Oct-23 23:34N 41°16' W 072°07'5 5.2
2014-Oct-23 22:34N 41°21' W 072°06'9 9.5
2014-Oct-23 21:34N 41°13' W 072°11'4 4.5
2014-Oct-23 20:34N 41°09' W 072°14'8 8.1
2014-Oct-23 19:34N 41°16' W 072°08'6 6.0
2014-Oct-23 18:34N 41°21' W 072°06'10 9.5
2014-Oct-23 17:33N 41°13' W 072°11'4 4.4
2014-Oct-23 16:33N 41°09' W 072°14'9 8.6
2014-Oct-23 15:33N 41°16' W 072°07'6 5.5
2014-Oct-23 14:33N 41°21' W 072°06'10 9.6
2014-Oct-23 13:33N 41°13' W 072°12'4 4.2
2014-Oct-23 12:33N 41°09' W 072°14'1010.0
2014-Oct-23 11:33N 41°17' W 072°06'4 4.3
2014-Oct-23 10:33N 41°21' W 072°06'0 0.0
2014-Oct-23 00:33N 41°21' W 072°05'10 9.9
2014-Oct-22 23:34N 41°13' W 072°12'4 3.8
2014-Oct-22 22:34N 41°09' W 072°14'8 8.0
2014-Oct-22 21:34N 41°16' W 072°08'6 5.9
2014-Oct-22 20:33N 41°21' W 072°06'9 9.3
2014-Oct-22 19:33N 41°13' W 072°11'5 4.5
2014-Oct-22 18:33N 41°09' W 072°14'9 9.0
2014-Oct-22 17:34N 41°16' W 072°07'5 5.2
2014-Oct-22 16:34N 41°21' W 072°06'9 9.1
2014-Oct-22 15:33N 41°13' W 072°10'5 4.8
2014-Oct-22 14:33N 41°09' W 072°14'1212.5
2014-Oct-22 13:33N 41°19' W 072°05'3 2.7
2014-Oct-22 12:33N 41°17' W 072°06'1010.1
2014-Oct-22 11:34N 41°09' W 072°14'0 0.0
2014-Oct-22 00:33N 41°09' W 072°14'9 8.9
2014-Oct-21 23:34N 41°16' W 072°07'5 5.2
2014-Oct-21 22:33N 41°21' W 072°06'9 8.8
2014-Oct-21 21:33N 41°13' W 072°10'5 5.2
2014-Oct-21 20:33N 41°09' W 072°14'9 9.3
2014-Oct-21 19:34N 41°16' W 072°07'5 4.9
2014-Oct-21 18:34N 41°21' W 072°06'9 9.3
2014-Oct-21 17:33N 41°13' W 072°10'5 4.6
2014-Oct-21 16:33N 41°09' W 072°14'9 8.8
2014-Oct-21 15:33N 41°16' W 072°07'5 5.3
2014-Oct-21 14:33N 41°21' W 072°06'9 9.4
2014-Oct-21 13:33N 41°13' W 072°10'5 4.6
2014-Oct-21 12:33N 41°09' W 072°14'9 9.4
2014-Oct-21 11:33N 41°17' W 072°07'5 4.7
2014-Oct-21 10:33N 41°21' W 072°06'0 0.0
2014-Oct-21 01:33N 41°21' W 072°06'0 0.0
2014-Oct-21 00:33N 41°21' W 072°05'9 9.4
2014-Oct-20 23:33N 41°13' W 072°11'4 4.5
2014-Oct-20 22:33N 41°09' W 072°14'9 8.7
2014-Oct-20 21:33N 41°16' W 072°07'5 5.3
2014-Oct-20 20:33N 41°21' W 072°06'9 9.1
2014-Oct-20 19:33N 41°13' W 072°10'5 4.9
2014-Oct-20 18:33N 41°09' W 072°14'9 8.9
2014-Oct-20 17:33N 41°16' W 072°07'5 5.3
2014-Oct-20 16:33N 41°21' W 072°06'10 9.6
2014-Oct-20 15:33N 41°13' W 072°10'4 4.5
2014-Oct-20 14:33N 41°09' W 072°14'10 9.6
2014-Oct-20 13:33N 41°17' W 072°06'5 4.7
2014-Oct-20 12:33N 41°21' W 072°06'9 8.9
2014-Oct-20 11:33N 41°13' W 072°10'5 5.0
2014-Oct-20 10:33N 41°09' W 072°14'0 0.0
2014-Oct-20 02:33N 41°09' W 072°14'9 8.6
2014-Oct-20 01:33N 41°16' W 072°07'6 5.5
2014-Oct-20 00:33N 41°21' W 072°06'9 9.3
2014-Oct-19 23:33N 41°13' W 072°12'5 4.6
2014-Oct-19 22:34N 41°09' W 072°14'1110.7
2014-Oct-19 21:34N 41°18' W 072°06'4 3.7
2014-Oct-19 20:34N 41°21' W 072°06'10 9.6
2014-Oct-19 19:33N 41°13' W 072°12'4 4.2
2014-Oct-19 18:33N 41°09' W 072°14'9 9.1
2014-Oct-19 17:33N 41°16' W 072°07'5 5.1
2014-Oct-19 16:33N 41°21' W 072°05'10 9.6
2014-Oct-19 15:33N 41°13' W 072°11'4 4.4
2014-Oct-19 14:33N 41°09' W 072°14'9 9.3
2014-Oct-19 13:33N 41°16' W 072°07'5 5.0
2014-Oct-19 12:34N 41°21' W 072°06'9 8.6
2014-Oct-19 11:33N 41°13' W 072°10'5 5.3
2014-Oct-19 10:33N 41°09' W 072°14'0 0.0
2014-Oct-19 00:24N 41°09' W 072°14'910.1
2014-Oct-18 23:33N 41°16' W 072°07'6 5.5
2014-Oct-18 22:33N 41°21' W 072°06'9 9.0
2014-Oct-18 21:33N 41°13' W 072°10'5 4.9
2014-Oct-18 20:34N 41°09' W 072°14'8 8.1
2014-Oct-18 19:34N 41°16' W 072°08'6 5.9
2014-Oct-18 18:34N 41°21' W 072°06'10 9.8
2014-Oct-18 17:33N 41°13' W 072°13'4 4.1
2014-Oct-18 16:33N 41°09' W 072°14'9 9.4
2014-Oct-18 15:33N 41°17' W 072°07'5 4.8
2014-Oct-18 14:33N 41°21' W 072°06'8 8.4
2014-Oct-18 13:34N 41°14' W 072°10'6 5.5
2014-Oct-18 12:33N 41°09' W 072°14'8 8.4
2014-Oct-18 11:33N 41°16' W 072°08'6 5.6
2014-Oct-18 10:33N 41°21' W 072°06'0 0.0
2014-Oct-18 02:06N 41°21' W 072°06'5 9.0
2014-Oct-18 01:33N 41°16' W 072°06'10 9.6
2014-Oct-18 00:33N 41°09' W 072°14'9 8.8
2014-Oct-17 23:34N 41°16' W 072°07'5 5.4
2014-Oct-17 22:34N 41°21' W 072°06'9 9.3
2014-Oct-17 21:34N 41°13' W 072°11'5 4.6
2014-Oct-17 20:33N 41°09' W 072°14'8 8.3
2014-Oct-17 19:34N 41°16' W 072°08'6 5.7
2014-Oct-17 18:34N 41°21' W 072°06'9 8.6
2014-Oct-17 17:34N 41°13' W 072°09'5 5.5
2014-Oct-17 16:33N 41°09' W 072°14'9 8.7
2014-Oct-17 15:33N 41°16' W 072°07'5 5.4
2014-Oct-17 14:34N 41°21' W 072°06'9 8.8
2014-Oct-17 13:34N 41°13' W 072°10'5 5.1
2014-Oct-17 12:33N 41°09' W 072°14'9 9.3
2014-Oct-17 11:33N 41°17' W 072°07'5 4.9
2014-Oct-17 10:33N 41°21' W 072°06'0 0.0
2014-Oct-17 00:22N 41°21' W 072°06'810.1
2014-Oct-16 23:33N 41°14' W 072°09'6 5.8
2014-Oct-16 22:33N 41°09' W 072°14'9 9.1
2014-Oct-16 21:33N 41°16' W 072°07'5 5.1
2014-Oct-16 20:33N 41°21' W 072°06'9 9.1
2014-Oct-16 19:33N 41°13' W 072°11'5 4.8
2014-Oct-16 18:34N 41°09' W 072°14'9 9.1
2014-Oct-16 17:34N 41°16' W 072°07'5 5.1
2014-Oct-16 16:34N 41°21' W 072°06'9 9.1
2014-Oct-16 15:33N 41°13' W 072°11'4 3.8
2014-Oct-16 14:33N 41°10' W 072°13'1110.5
2014-Oct-16 13:34N 41°18' W 072°05'0 0.2
2014-Oct-16 12:34N 41°19' W 072°05'1211.8
2014-Oct-16 11:34N 41°09' W 072°14'0 0.0
2014-Oct-16 00:33N 41°09' W 072°14'  
Track history (hours):
 
Tides and Currents Weather Stations Pressure Air Temp Water Temp Dewpoint Dewpoint Depression Visibility Wind Speed Wind Dir Waves Ship Positions

John H.

Owner: CROSS SOUND FERRY SERVICE INC, NEW LOUDON, CT. More information available from US FCC via Universal Licensing System and Coast Guard Vessel Documentation Center.

Last reported at 2014-Oct-26 00:30 UTC. Time now 2014-Oct-26 07:05 UTC.
Position N 41°21' W 072°06'.

Length 70 m.

Type: Passenger vessel. MMSI: 366934890.

Date/timePositionNaut miles runAvg speedWind from/ knotsBaromVisibWave heightAir tempDewpointWater temp
2014-Oct-26 00:30N 41°21' W 072°06'9 9.1
2014-Oct-25 23:33N 41°13' W 072°10'5 5.3
2014-Oct-25 22:33N 41°09' W 072°14'9 8.8
2014-Oct-25 21:33N 41°16' W 072°07'5 5.3
2014-Oct-25 20:33N 41°21' W 072°06'9 8.5
2014-Oct-25 19:33N 41°13' W 072°10'5 5.5
2014-Oct-25 18:34N 41°09' W 072°14'10 9.7
2014-Oct-25 17:33N 41°17' W 072°06'5 4.7
2014-Oct-25 16:33N 41°21' W 072°06'9 9.2
2014-Oct-25 15:33N 41°13' W 072°10'5 4.7
2014-Oct-25 14:33N 41°09' W 072°14'9 9.1
2014-Oct-25 13:33N 41°16' W 072°07'5 5.0
2014-Oct-25 12:33N 41°21' W 072°06'9 8.7
2014-Oct-25 11:33N 41°13' W 072°10'5 5.3
2014-Oct-25 10:34N 41°09' W 072°14'0 0.0
2014-Oct-25 02:13N 41°09' W 072°14'5 7.4
2014-Oct-25 01:33N 41°13' W 072°11'9 9.0
2014-Oct-25 00:33N 41°21' W 072°06'9 9.0
2014-Oct-24 23:33N 41°13' W 072°10'5 5.0
2014-Oct-24 22:33N 41°09' W 072°14'8 8.2
2014-Oct-24 21:33N 41°16' W 072°08'6 5.9
2014-Oct-24 20:33N 41°21' W 072°06'9 9.4
2014-Oct-24 19:33N 41°13' W 072°10'5 4.5
2014-Oct-24 18:32N 41°09' W 072°14'8 8.7
2014-Oct-24 17:33N 41°16' W 072°07'6 5.7
2014-Oct-24 16:33N 41°21' W 072°06'9 9.4
2014-Oct-24 15:33N 41°13' W 072°11'5 4.5
2014-Oct-24 14:33N 41°09' W 072°14'9 9.2
2014-Oct-24 13:33N 41°16' W 072°07'5 5.0
2014-Oct-24 12:33N 41°21' W 072°06'9 9.0
2014-Oct-24 11:33N 41°13' W 072°10'5 5.0
2014-Oct-24 10:33N 41°09' W 072°14'0 0.0
2014-Oct-24 01:33N 41°09' W 072°14'0 0.1
2014-Oct-24 00:33N 41°09' W 072°14'9 9.0
2014-Oct-23 23:34N 41°16' W 072°07'5 5.2
2014-Oct-23 22:34N 41°21' W 072°06'9 9.5
2014-Oct-23 21:34N 41°13' W 072°11'4 4.5
2014-Oct-23 20:34N 41°09' W 072°14'8 8.1
2014-Oct-23 19:34N 41°16' W 072°08'6 6.0
2014-Oct-23 18:34N 41°21' W 072°06'10 9.5
2014-Oct-23 17:33N 41°13' W 072°11'4 4.4
2014-Oct-23 16:33N 41°09' W 072°14'9 8.6
2014-Oct-23 15:33N 41°16' W 072°07'6 5.5
2014-Oct-23 14:33N 41°21' W 072°06'10 9.6
2014-Oct-23 13:33N 41°13' W 072°12'4 4.2
2014-Oct-23 12:33N 41°09' W 072°14'1010.0
2014-Oct-23 11:33N 41°17' W 072°06'4 4.3
2014-Oct-23 10:33N 41°21' W 072°06'0 0.0
2014-Oct-23 00:33N 41°21' W 072°05'10 9.9
2014-Oct-22 23:34N 41°13' W 072°12'4 3.8
2014-Oct-22 22:34N 41°09' W 072°14'8 8.0
2014-Oct-22 21:34N 41°16' W 072°08'6 5.9
2014-Oct-22 20:33N 41°21' W 072°06'9 9.3
2014-Oct-22 19:33N 41°13' W 072°11'5 4.5
2014-Oct-22 18:33N 41°09' W 072°14'9 9.0
2014-Oct-22 17:34N 41°16' W 072°07'5 5.2
2014-Oct-22 16:34N 41°21' W 072°06'9 9.1
2014-Oct-22 15:33N 41°13' W 072°10'5 4.8
2014-Oct-22 14:33N 41°09' W 072°14'1212.5
2014-Oct-22 13:33N 41°19' W 072°05'3 2.7
2014-Oct-22 12:33N 41°17' W 072°06'1010.1
2014-Oct-22 11:34N 41°09' W 072°14'0 0.0
2014-Oct-22 00:33N 41°09' W 072°14'9 8.9
2014-Oct-21 23:34N 41°16' W 072°07'5 5.2
2014-Oct-21 22:33N 41°21' W 072°06'9 8.8
2014-Oct-21 21:33N 41°13' W 072°10'5 5.2
2014-Oct-21 20:33N 41°09' W 072°14'9 9.3
2014-Oct-21 19:34N 41°16' W 072°07'5 4.9
2014-Oct-21 18:34N 41°21' W 072°06'9 9.3
2014-Oct-21 17:33N 41°13' W 072°10'5 4.6
2014-Oct-21 16:33N 41°09' W 072°14'9 8.8
2014-Oct-21 15:33N 41°16' W 072°07'5 5.3
2014-Oct-21 14:33N 41°21' W 072°06'9 9.4
2014-Oct-21 13:33N 41°13' W 072°10'5 4.6
2014-Oct-21 12:33N 41°09' W 072°14'9 9.4
2014-Oct-21 11:33N 41°17' W 072°07'5 4.7
2014-Oct-21 10:33N 41°21' W 072°06'0 0.0
2014-Oct-21 01:33N 41°21' W 072°06'0 0.0
2014-Oct-21 00:33N 41°21' W 072°05'9 9.4
2014-Oct-20 23:33N 41°13' W 072°11'4 4.5
2014-Oct-20 22:33N 41°09' W 072°14'9 8.7
2014-Oct-20 21:33N 41°16' W 072°07'5 5.3
2014-Oct-20 20:33N 41°21' W 072°06'9 9.1
2014-Oct-20 19:33N 41°13' W 072°10'5 4.9
2014-Oct-20 18:33N 41°09' W 072°14'9 8.9
2014-Oct-20 17:33N 41°16' W 072°07'5 5.3
2014-Oct-20 16:33N 41°21' W 072°06'10 9.6
2014-Oct-20 15:33N 41°13' W 072°10'4 4.5
2014-Oct-20 14:33N 41°09' W 072°14'10 9.6
2014-Oct-20 13:33N 41°17' W 072°06'5 4.7
2014-Oct-20 12:33N 41°21' W 072°06'9 8.9
2014-Oct-20 11:33N 41°13' W 072°10'5 5.0
2014-Oct-20 10:33N 41°09' W 072°14'0 0.0
2014-Oct-20 02:33N 41°09' W 072°14'9 8.6
2014-Oct-20 01:33N 41°16' W 072°07'6 5.5
2014-Oct-20 00:33N 41°21' W 072°06'9 9.3
2014-Oct-19 23:33N 41°13' W 072°12'5 4.6
2014-Oct-19 22:34N 41°09' W 072°14'1110.7
2014-Oct-19 21:34N 41°18' W 072°06'4 3.7
2014-Oct-19 20:34N 41°21' W 072°06'10 9.6
2014-Oct-19 19:33N 41°13' W 072°12'4 4.2
2014-Oct-19 18:33N 41°09' W 072°14'9 9.1
2014-Oct-19 17:33N 41°16' W 072°07'5 5.1
2014-Oct-19 16:33N 41°21' W 072°05'10 9.6
2014-Oct-19 15:33N 41°13' W 072°11'4 4.4
2014-Oct-19 14:33N 41°09' W 072°14'9 9.3
2014-Oct-19 13:33N 41°16' W 072°07'5 5.0
2014-Oct-19 12:34N 41°21' W 072°06'9 8.6
2014-Oct-19 11:33N 41°13' W 072°10'5 5.3
2014-Oct-19 10:33N 41°09' W 072°14'0 0.0
2014-Oct-19 00:24N 41°09' W 072°14'910.1
2014-Oct-18 23:33N 41°16' W 072°07'6 5.5
2014-Oct-18 22:33N 41°21' W 072°06'9 9.0
2014-Oct-18 21:33N 41°13' W 072°10'5 4.9
2014-Oct-18 20:34N 41°09' W 072°14'8 8.1
2014-Oct-18 19:34N 41°16' W 072°08'6 5.9
2014-Oct-18 18:34N 41°21' W 072°06'10 9.8
2014-Oct-18 17:33N 41°13' W 072°13'4 4.1
2014-Oct-18 16:33N 41°09' W 072°14'9 9.4
2014-Oct-18 15:33N 41°17' W 072°07'5 4.8
2014-Oct-18 14:33N 41°21' W 072°06'8 8.4
2014-Oct-18 13:34N 41°14' W 072°10'6 5.5
2014-Oct-18 12:33N 41°09' W 072°14'8 8.4
2014-Oct-18 11:33N 41°16' W 072°08'6 5.6
2014-Oct-18 10:33N 41°21' W 072°06'0 0.0
2014-Oct-18 02:06N 41°21' W 072°06'5 9.0
2014-Oct-18 01:33N 41°16' W 072°06'10 9.6
2014-Oct-18 00:33N 41°09' W 072°14'9 8.8
2014-Oct-17 23:34N 41°16' W 072°07'5 5.4
2014-Oct-17 22:34N 41°21' W 072°06'9 9.3
2014-Oct-17 21:34N 41°13' W 072°11'5 4.6
2014-Oct-17 20:33N 41°09' W 072°14'8 8.3
2014-Oct-17 19:34N 41°16' W 072°08'6 5.7
2014-Oct-17 18:34N 41°21' W 072°06'9 8.6
2014-Oct-17 17:34N 41°13' W 072°09'5 5.5
2014-Oct-17 16:33N 41°09' W 072°14'9 8.7
2014-Oct-17 15:33N 41°16' W 072°07'5 5.4
2014-Oct-17 14:34N 41°21' W 072°06'9 8.8
2014-Oct-17 13:34N 41°13' W 072°10'5 5.1
2014-Oct-17 12:33N 41°09' W 072°14'9 9.3
2014-Oct-17 11:33N 41°17' W 072°07'5 4.9
2014-Oct-17 10:33N 41°21' W 072°06'0 0.0
2014-Oct-17 00:22N 41°21' W 072°06'810.1
2014-Oct-16 23:33N 41°14' W 072°09'6 5.8
2014-Oct-16 22:33N 41°09' W 072°14'9 9.1
2014-Oct-16 21:33N 41°16' W 072°07'5 5.1
2014-Oct-16 20:33N 41°21' W 072°06'9 9.1
2014-Oct-16 19:33N 41°13' W 072°11'5 4.8
2014-Oct-16 18:34N 41°09' W 072°14'9 9.1
2014-Oct-16 17:34N 41°16' W 072°07'5 5.1
2014-Oct-16 16:34N 41°21' W 072°06'9 9.1
2014-Oct-16 15:33N 41°13' W 072°11'4 3.8
2014-Oct-16 14:33N 41°10' W 072°13'1110.5
2014-Oct-16 13:34N 41°18' W 072°05'0 0.2
2014-Oct-16 12:34N 41°19' W 072°05'1211.8
2014-Oct-16 11:34N 41°09' W 072°14'0 0.0
2014-Oct-16 00:33N 41°09' W 072°14'  

Dump ship's entire track history